Powrót do katalogu

STARLINK-33545

AktywnyŁącznośćVLEO
NORAD 62101·PAYLOAD·🇺🇸 United States

Wystrzelony Nov 25, 2024 z Cape Canaveral Space Force Station

Loading…

Następne Przeloty (najbliższe 24 godziny)

TLE

ŚwieżeSource: CelesTrak SupGP

Epoka: Sep 15, 2026, 02:48 UTC

1 62101C 24220P   26258.11715278 -.00046371  00000+0 -16797-2 0  2587
2 62101  42.9995 215.5072 0001194 270.5521 122.8306 15.27598598    11

Śledź STARLINK-33545 w czasie rzeczywistym z AllMySat

Download on the App Store